When you browse on this site, cookies collect data to enhance your experience and personalize the content and advertising you see.
Visit our Privacy Policy to learn more. By continuing to use the site, you agree to this use of cookies and data.

Météo par heure à Yulara

Ce jour, 23 Septembre, Mercredi

Heure Température Précipitation Vent Pression Humidité
00:00 +16°C° 0 mm 6 m/s 721 mmHg 28%
01:00 +16°C° 0 mm 5 m/s 721 mmHg 31%
02:00 +15°C° 0 mm 5 m/s 721 mmHg 35%
03:00 +14°C° 0 mm 5 m/s 721 mmHg 38%
04:00 +14°C° 0 mm 5 m/s 721 mmHg 42%
05:00 +13°C° 0 mm 5 m/s 722 mmHg 46%
06:00 +13°C° 0 mm 5 m/s 722 mmHg 50%
07:00 +15°C° 0 mm 6 m/s 722 mmHg 44%
08:00 +17°C° 0 mm 7 m/s 723 mmHg 39%
09:00 +20°C° 0 mm 8 m/s 724 mmHg 31%
10:00 +22°C° 0 mm 7 m/s 723 mmHg 28%
11:00 +24°C° 0 mm 7 m/s 723 mmHg 25%
12:00 +26°C° 0 mm 6 m/s 722 mmHg 21%
13:00 +27°C° 0 mm 5 m/s 722 mmHg 20%
14:00 +28°C° 0 mm 5 m/s 721 mmHg 18%
15:00 +28°C° 0 mm 4 m/s 721 mmHg 16%
16:00 +27°C° 0 mm 4 m/s 721 mmHg 17%
17:00 +26°C° 0 mm 4 m/s 721 mmHg 18%
18:00 +25°C° 0 mm 3 m/s 721 mmHg 19%
19:00 +23°C° 0 mm 4 m/s 721 mmHg 21%
20:00 +21°C° 0 mm 4 m/s 721 mmHg 22%
21:00 +20°C° 0 mm 5 m/s 722 mmHg 23%
22:00 +19°C° 0 mm 5 m/s 722 mmHg 24%
23:00 +17°C° 0 mm 6 m/s 721 mmHg 25%

Demain, 24 Septembre, Jeudi

Heure Température Précipitation Vent Pression Humidité
00:00 +16°C° 0 mm 6 m/s 721 mmHg 26%
01:00 +16°C° 0 mm 5 m/s 721 mmHg 28%
02:00 +15°C° 0 mm 5 m/s 721 mmHg 30%
03:00 +14°C° 0 mm 4 m/s 720 mmHg 33%
04:00 +13°C° 0 mm 4 m/s 720 mmHg 34%
05:00 +13°C° 0 mm 4 m/s 720 mmHg 36%
06:00 +12°C° 0 mm 4 m/s 720 mmHg 37%
07:00 +15°C° 0 mm 4 m/s 721 mmHg 32%
08:00 +17°C° 0 mm 5 m/s 722 mmHg 28%
09:00 +21°C° 0 mm 6 m/s 722 mmHg 23%
10:00 +23°C° 0 mm 5 m/s 722 mmHg 21%
11:00 +25°C° 0 mm 4 m/s 721 mmHg 19%
12:00 +27°C° 0 mm 3 m/s 721 mmHg 17%
13:00 +28°C° 0 mm 3 m/s 720 mmHg 16%
14:00 +28°C° 0 mm 2 m/s 719 mmHg 15%
15:00 +29°C° 0 mm 2 m/s 719 mmHg 14%
16:00 +28°C° 0 mm 2 m/s 719 mmHg 15%
17:00 +27°C° 0 mm 2 m/s 719 mmHg 16%
18:00 +26°C° 0 mm 2 m/s 719 mmHg 17%
19:00 +24°C° 0 mm 3 m/s 719 mmHg 19%
20:00 +22°C° 0 mm 4 m/s 719 mmHg 20%
21:00 +21°C° 0 mm 5 m/s 719 mmHg 22%
22:00 +20°C° 0 mm 6 m/s 719 mmHg 24%
23:00 +19°C° 0 mm 6 m/s 719 mmHg 26%

Après-demain, 25 Septembre, Vendredi

Heure Température Précipitation Vent Pression Humidité
00:00 +17°C° 0 mm 6 m/s 719 mmHg 28%
01:00 +17°C° 0 mm 5 m/s 718 mmHg 30%
02:00 +16°C° 0 mm 5 m/s 718 mmHg 32%
03:00 +15°C° 0 mm 5 m/s 718 mmHg 35%
04:00 +15°C° 0 mm 4 m/s 719 mmHg 36%
05:00 +14°C° 0 mm 4 m/s 719 mmHg 37%
06:00 +13°C° 0 mm 3 m/s 720 mmHg 38%
07:00 +15°C° 0 mm 4 m/s 720 mmHg 35%
08:00 +18°C° 0 mm 4 m/s 720 mmHg 31%
09:00 +19°C° 0 mm 5 m/s 721 mmHg 28%
10:00 +21°C° 0 mm 4 m/s 720 mmHg 25%
11:00 +23°C° 0 mm 4 m/s 720 mmHg 22%
12:00 +26°C° 0 mm 4 m/s 720 mmHg 19%
13:00 +26°C° 0 mm 3 m/s 719 mmHg 18%
14:00 +27°C° 0 mm 3 m/s 718 mmHg 18%
15:00 +28°C° 0 mm 2 m/s 718 mmHg 17%
16:00 +27°C° 0 mm 3 m/s 718 mmHg 19%
17:00 +26°C° 0 mm 3 m/s 718 mmHg 21%
18:00 +25°C° 0 mm 3 m/s 718 mmHg 22%
19:00 +22°C° 0 mm 3 m/s 718 mmHg 25%
20:00 +21°C° 0 mm 3 m/s 718 mmHg 27%
21:00 +19°C° 0 mm 3 m/s 719 mmHg 30%
22:00 +19°C° 0 mm 4 m/s 719 mmHg 31%
23:00 +18°C° 0 mm 4 m/s 719 mmHg 32%

26 Septembre, Samedi

Heure Température Précipitation Vent Pression Humidité
00:00 +16°C° 0 mm 5 m/s 719 mmHg 33%
01:00 +15°C° 0 mm 5 m/s 719 mmHg 35%
02:00 +15°C° 0 mm 5 m/s 719 mmHg 36%
03:00 +14°C° 0 mm 5 m/s 718 mmHg 37%
04:00 +13°C° 0 mm 5 m/s 719 mmHg 38%
05:00 +13°C° 0 mm 5 m/s 719 mmHg 38%
06:00 +12°C° 0 mm 5 m/s 719 mmHg 38%
07:00 +14°C° 0 mm 6 m/s 720 mmHg 35%
08:00 +16°C° 0 mm 7 m/s 720 mmHg 31%
09:00 +18°C° 0 mm 8 m/s 720 mmHg 27%
10:00 +22°C° 0 mm 7 m/s 720 mmHg 24%
11:00 +26°C° 0 mm 7 m/s 720 mmHg 21%
12:00 +28°C° 0 mm 6 m/s 719 mmHg 18%
13:00 +29°C° 0 mm 5 m/s 719 mmHg 17%
14:00 +30°C° 0 mm 4 m/s 718 mmHg 15%
15:00 +31°C° 0 mm 3 m/s 717 mmHg 13%
16:00 +30°C° 0 mm 3 m/s 717 mmHg 15%
17:00 +29°C° 0 mm 3 m/s 717 mmHg 16%
18:00 +27°C° 0 mm 3 m/s 717 mmHg 17%
19:00 +26°C° 0 mm 3 m/s 718 mmHg 19%
20:00 +25°C° 0 mm 4 m/s 718 mmHg 21%
21:00 +22°C° 0 mm 5 m/s 718 mmHg 23%
22:00 +21°C° 0 mm 5 m/s 718 mmHg 27%
23:00 +20°C° 0 mm 5 m/s 718 mmHg 32%

27 Septembre, Dimanche

Heure Température Précipitation Vent Pression Humidité
00:00 +19°C° 0 mm 4 m/s 719 mmHg 36%
01:00 +19°C° 0 mm 4 m/s 718 mmHg 40%
02:00 +18°C° 0 mm 4 m/s 718 mmHg 43%
03:00 +18°C° 0 mm 4 m/s 718 mmHg 47%
04:00 +17°C° 0 mm 4 m/s 718 mmHg 49%
05:00 +15°C° 0 mm 4 m/s 718 mmHg 51%
06:00 +15°C° 0 mm 4 m/s 719 mmHg 54%
07:00 +19°C° 0 mm 5 m/s 719 mmHg 46%
08:00 +22°C° 0 mm 5 m/s 720 mmHg 39%
09:00 +26°C° 0 mm 6 m/s 720 mmHg 31%
10:00 +28°C° 0 mm 6 m/s 720 mmHg 25%
11:00 +32°C° 0 mm 6 m/s 720 mmHg 20%
12:00 +34°C° 0 mm 6 m/s 720 mmHg 14%
13:00 +35°C° 0 mm 6 m/s 719 mmHg 15%
14:00 +35°C° 0 mm 6 m/s 718 mmHg 16%
15:00 +35°C° 0 mm 6 m/s 718 mmHg 16%
16:00 +34°C° 0 mm 5 m/s 718 mmHg 18%
17:00 +33°C° 0 mm 5 m/s 718 mmHg 20%
18:00 +32°C° 0 mm 4 m/s 718 mmHg 22%
19:00 +29°C° 0 mm 5 m/s 718 mmHg 25%
20:00 +28°C° 0 mm 5 m/s 719 mmHg 27%
21:00 +27°C° 0 mm 5 m/s 719 mmHg 29%
22:00 +26°C° 0 mm 5 m/s 719 mmHg 30%
23:00 +26°C° 0 mm 5 m/s 719 mmHg 31%

28 Septembre, Lundi

Heure Température Précipitation Vent Pression Humidité
00:00 +25°C° 0 mm 5 m/s 719 mmHg 32%
01:00 +23°C° 0 mm 4 m/s 719 mmHg 33%
02:00 +24°C° 0 mm 2 m/s 718 mmHg 35%
03:00 +23°C° 0 mm 1 m/s 718 mmHg 37%
04:00 +23°C° 0 mm 2 m/s 718 mmHg 36%
05:00 +22°C° 0 mm 3 m/s 718 mmHg 36%
06:00 +22°C° 0 mm 4 m/s 719 mmHg 35%
07:00 +25°C° 0 mm 5 m/s 719 mmHg 31%
08:00 +26°C° 0 mm 7 m/s 719 mmHg 27%
09:00 +28°C° 0 mm 8 m/s 720 mmHg 23%
10:00 +31°C° 0 mm 8 m/s 719 mmHg 21%
11:00 +34°C° 0 mm 9 m/s 719 mmHg 19%
12:00 +37°C° 0 mm 9 m/s 719 mmHg 17%
13:00 +36°C° 0 mm 10 m/s 718 mmHg 19%
14:00 +34°C° 0 mm 10 m/s 717 mmHg 22%
15:00 +33°C° 0 mm 11 m/s 716 mmHg 24%
16:00 +32°C° 0 mm 8 m/s 716 mmHg 28%
17:00 +29°C° 0 mm 5 m/s 716 mmHg 31%
18:00 +28°C° 0 mm 2 m/s 716 mmHg 34%
19:00 +27°C° 0 mm 2 m/s 716 mmHg 35%
20:00 +26°C° 0 mm 2 m/s 717 mmHg 36%
21:00 +26°C° 0 mm 3 m/s 717 mmHg 36%
22:00 +26°C° 0.1 mm 5 m/s 717 mmHg 38%
23:00 +26°C° 0.1 mm 7 m/s 717 mmHg 39%
Voir plus